Weather History for MCMWTC BRIDGEPORT, CA, CA

Change the Weather History Date:

Tuesday, May 6, 2014

  Actual Average (KTVL) Record (KTVL)
Temperature  
Mean Temperature 38 °F 46 °F  
Max Temperature 45 °F 61 °F 76 °F (1990)
Min Temperature 32 °F 30 °F 12 °F (1977)
Degree Days  
Heating Degree Days 28 20  
Month to date heating degree days 122  
Since 1 July heating degree days 7012  
Cooling Degree Days 0 0  
Month to date cooling degree days 0  
Year to date cooling degree days 0  
Moisture  
Dew Point 27 °F    
Average Humidity 69    
Maximum Humidity 85    
Minimum Humidity 49    
Precipitation  
Precipitation 0.05 in - 1.16 in (2013)
Month to date precipitation  
Year to date precipitation  
Sea Level Pressure  
Sea Level Pressure 29.80 in    
Wind  
Wind Speed 4 mph (SSW)    
Max Wind Speed 13 mph    
Max Gust Speed 23 mph    
Visibility 5 miles    
Events Snow    
T = Trace of Precipitation, MM = Missing Value Source: NWS Daily Summary

Daily Weather History Graph

Daily Weather History Graph

Search for Another Location

Airport:

Trip Planner

Search our weather history database for the weather conditions in past years. The results will help you decide how hot, cold, wet, or windy it might be!

Date:

Astronomy

May. 06, 2014 Rise Set
Actual Time 5:55 AM PDT 7:54 PM PDT
Civil Twilight 5:26 AM PDT 8:23 PM PDT
Nautical Twilight 4:51 AM PDT 8:58 PM PDT
Astronomical Twilight 4:13 AM PDT 9:36 PM PDT
Moon 12:15 PM PDT (5/6) 1:17 AM PDT (5/6)
Length of Visible Light 14h 56m
Length of Day
13h 58m
Waxing Crescent, 47% of the Moon is Illuminated
May 6
Waxing Crescent
May 6
First Quarter
May 14
Full
May 21
Last Quarter
May 28
New

Hourly Weather History & Observations

Time (PDT) Temp. Windchill Dew Point Humidity Pressure Visibility Wind Dir Wind Speed Gust Speed Precip Events Conditions
12:52 AM 34.0 °F 31.0 °F 23.0 °F 64% 29.71 in 10.0 mi NNW 3.5 mph - N/A   Overcast
4:52 AM 32.0 °F 28.7 °F 21.0 °F 64% 29.70 in 10.0 mi West 3.5 mph - N/A   Overcast
5:52 AM 33.1 °F - 21.9 °F 64% 29.71 in 10.0 mi Calm Calm - N/A   Overcast
6:52 AM 33.1 °F - 23.0 °F 66% 29.73 in 10.0 mi Calm Calm - N/A   Overcast
7:52 AM 35.1 °F - 23.0 °F 61% 29.73 in 10.0 mi Calm Calm - N/A   Overcast
8:52 AM 37.0 °F - 23.0 °F 57% 29.74 in 7.0 mi Calm Calm - 0.00 in Snow Light Snow
9:52 AM 39.0 °F 34.0 °F 25.0 °F 57% 29.72 in 9.0 mi SW 6.9 mph - 0.00 in   Overcast
10:26 AM 36.0 °F 28.5 °F 27.0 °F 70% 29.80 in 1.8 mi NE 10.4 mph 20.7 mph 0.00 in Snow Light Snow
10:30 AM 35.1 °F 31.0 °F 28.0 °F 76% 29.81 in 0.8 mi Variable 4.6 mph 20.7 mph 0.00 in Snow Light Snow
10:40 AM 33.1 °F - 28.0 °F 82% 29.82 in 0.5 mi Calm Calm - 0.01 in Snow Snow
10:45 AM 34.0 °F 29.8 °F 28.9 °F 82% 29.82 in 1.0 mi South 4.6 mph - 0.01 in Snow Light Snow
10:52 AM 35.1 °F 32.2 °F 30.0 °F 82% 29.78 in 2.0 mi Variable 3.5 mph - 0.01 in Snow Light Snow
11:00 AM 35.1 °F 29.3 °F 28.9 °F 78% 29.82 in 1.2 mi SE 6.9 mph - 0.01 in Snow Light Snow
11:08 AM 36.0 °F 32.1 °F 28.9 °F 76% 29.82 in 3.0 mi South 4.6 mph - 0.01 in Snow Light Snow
11:52 AM 41.0 °F 35.8 °F 23.0 °F 49% 29.77 in 10.0 mi ENE 8.1 mph - 0.01 in   Overcast
12:20 PM 37.9 °F 31.5 °F 28.0 °F 68% 29.83 in 1.5 mi North 9.2 mph 18.4 mph 0.00 in Snow Light Snow
12:25 PM 36.0 °F 28.5 °F 28.0 °F 73% 29.83 in 0.5 mi NE 10.4 mph 18.4 mph 0.00 in Snow Snow
12:40 PM 36.0 °F 29.6 °F 30.9 °F 82% 29.83 in 2.0 mi SE 8.1 mph - 0.01 in Snow Light Snow
12:43 PM 36.0 °F 29.6 °F 30.9 °F 82% 29.83 in 6.0 mi SE 8.1 mph - 0.01 in Snow Light Snow
12:52 PM 37.0 °F 31.6 °F 30.0 °F 76% 29.80 in 6.0 mi Variable 6.9 mph - 0.01 in Snow Light Snow
1:05 PM 36.0 °F 27.5 °F 30.0 °F 79% 29.83 in 1.8 mi East 12.7 mph 23.0 mph 0.00 in Snow Light Snow
1:15 PM 34.0 °F 26.6 °F 28.9 °F 82% 29.84 in 0.5 mi ESE 9.2 mph - 0.00 in Snow Snow
1:37 PM 35.1 °F 31.0 °F 30.9 °F 85% 29.84 in 2.5 mi South 4.6 mph - 0.01 in Snow Light Snow
1:44 PM 37.0 °F 34.5 °F 32.0 °F 82% 29.83 in 9.0 mi Variable 3.5 mph - 0.01 in   Overcast
1:52 PM 37.0 °F 33.3 °F 32.0 °F 82% 29.80 in 10.0 mi Variable 4.6 mph - 0.01 in   Overcast
2:45 PM 37.9 °F 30.5 °F 28.9 °F 70% 29.84 in 1.8 mi NE 11.5 mph 19.6 mph 0.00 in Snow Light Snow
2:52 PM 37.0 °F - 28.9 °F 73% 29.81 in 1.2 mi Calm Calm - 0.00 in Snow Light Snow
2:57 PM 37.0 °F 33.3 °F 30.0 °F 76% 29.84 in 2.0 mi SW 4.6 mph - 0.00 in Snow Light Snow
3:05 PM 39.0 °F 36.8 °F 30.0 °F 70% 29.84 in 9.0 mi Variable 3.5 mph - 0.00 in   Overcast
3:52 PM 43.0 °F - 25.0 °F 49% 29.79 in - North - - 0.00 in   Overcast
4:52 PM 39.0 °F - 30.0 °F 70% 29.81 in - Calm Calm - N/A   Overcast
5:52 PM 41.0 °F 37.1 °F 28.0 °F 60% 29.81 in - West 5.8 mph - 0.01 in   Overcast
6:52 PM 42.1 °F 37.1 °F 26.1 °F 53% 29.81 in - SW 8.1 mph - 0.00 in   Overcast
7:52 PM 39.0 °F 33.4 °F 24.1 °F 55% 29.82 in - SW 8.1 mph - N/A   Overcast
8:52 PM 37.0 °F 32.4 °F 23.0 °F 57% 29.83 in - WNW 5.8 mph - N/A   Mostly Cloudy
9:52 PM 39.9 °F 35.8 °F 21.9 °F 49% 29.83 in - WSW 5.8 mph - N/A   Overcast
10:52 PM 37.9 °F 35.5 °F 21.0 °F 51% 29.85 in - WSW 3.5 mph - N/A   Overcast
11:52 PM 34.0 °F 29.8 °F 21.0 °F 59% 29.85 in - Variable 4.6 mph - N/A   Partly Cloudy